User: anonymous   Login
Location: Guayaquil
(2.1667°S, 79.9000°W)
Time: 06:46:29
(UTC-05:00)
Language:

DNEPR OBJECT AB - Orbit

View from above orbital plane
View from above orbital plane
View from above satellite
View from above satellite

Ground track
Ground track

The orbit data is extracted from the following two-line orbital elements,

1 39441U 13066AB  18288.99444345  .00000124  00000-0  24688-4 0  9995
2 39441  97.6019 295.0936 0082192 167.8272 192.4949 14.74820977263585
Epoch (UTC): 15 October 2018 23:51:59
Eccentricity: 0.0082192
inclination: 97.6019°
perigee height: 588 km
apogee height: 703 km
right ascension of ascending node: 295.0936°
argument of perigee: 167.8272°
revolutions per day: 14.74820977
mean anomaly at epoch: 192.4949°
orbit number at epoch: 26358

The dashed part of the orbit path shows where the satellite is in the earth's shadow,  

DLR